Location: Asheville, NC
(35.6000°N, 82.5500°W)
Time: 01:44:41
(UTC-05:00)

Vanguard 2 - Pass Details

Date: 16 February 2018
Orbit: 553 x 2939 km, 32.9° (Epoch: 20 February)

Event Time Altitude Azimuth Distance (km) Brightness Sun altitude
Rises 20:56:27 0° 262° (W) 4,266 12.3 -33.7°
Reaches altitude 10° 20:59:57 10° 260° (W) 2,929 11.2 -34.4°
Enters shadow 21:04:18 37° 248° (WSW) 1,313 8.9 -35.3°
Maximum altitude 21:06:30 66° 179° (S) 832 - -35.7°
Drops below altitude 10° 21:10:53 10° 97° (E) 1,987 - -36.6°
Sets 21:12:53 0° 94° (E) 2,792 - -37.0°
